Notices

What's New in latest Release from April 7th, 2021:

- Updated Glossary, including Speed of Maximum Gust, and Total Hourly Precipitation

- Updated national and regional climate services offices contacts and prices information

- Addition of station inventory lists for 1981-2010, 1971-2000, and 1961-1990 Normals.

If you haven't already, please take our survey and provide feedback about our website: https://eccc.sondage-survey.ca/f/LanguageSelection.aspx?s=442ca660-fcf1-47c0-95a9-59707d6fd709

Hourly Data Report for January 25, 2004

TORONTO CITY
ONTARIO

43°40'00.000" N
79°24'00.000" W
112.50 m
6158355
71508
XTO

Download Data

Hourly Data (January 2004)
Hourly Data Report for January 25, 2004
TIME
LST
Temp Definition
°C
Dew Point Definition
°C
Rel Hum Definition
%
Precip. Amount Definition
mm

Wind Dir Definition
10's deg

Wind Spd Definition
km/h
Visibility Definition
km
Stn Press Definition
kPa
Hmdx Definition


Wind Chill Definition


Weather Definition


00:00 -17.4 -21.5 70   LegendMM LegendMM LegendMM 101.23     LegendNANA
01:00 -17.8 -21.6 72   LegendMM LegendMM LegendMM 101.24     LegendNANA
02:00 -16.9 -20.4 74   LegendMM LegendMM LegendMM 101.24     LegendNANA
03:00 -16.7 -20.4 73   LegendMM LegendMM LegendMM 101.23     LegendNANA
04:00 -16.7 -20.2 74   LegendMM LegendMM LegendMM 101.22     LegendNANA
05:00 -17.0 -20.3 75   LegendMM LegendMM LegendMM 101.23     LegendNANA
06:00 -16.6 -19.9 76   LegendMM LegendMM LegendMM 101.28     LegendNANA
07:00 -15.9 -19.7 73   LegendMM LegendMM LegendMM 101.26     LegendNANA
08:00 -15.9 -20.4 68   LegendMM LegendMM LegendMM 101.31     LegendNANA
09:00 -14.7 -19.8 65   LegendMM LegendMM LegendMM 101.35     LegendNANA
10:00 -12.6 -18.0 64   LegendMM LegendMM LegendMM 101.38     LegendNANA
11:00 -10.8 -18.8 52   LegendMM LegendMM LegendMM 101.44     LegendNANA
12:00 -10.2 -19.0 48   LegendMM LegendMM LegendMM 101.36     LegendNANA
13:00 -9.0 -18.1 48   LegendMM LegendMM LegendMM 101.28     LegendNANA
14:00 -8.5 -16.8 51   LegendMM LegendMM LegendMM 101.25     LegendNANA
15:00 -9.3 -14.3 67   LegendMM LegendMM LegendMM 101.26     LegendNANA
16:00 -9.4 -14.2 68   LegendMM LegendMM LegendMM 101.20     LegendNANA
17:00 -9.2 -14.0 68   LegendMM LegendMM LegendMM 101.16     LegendNANA
18:00 -9.1 -13.7 69   LegendMM LegendMM LegendMM 101.19     LegendNANA
19:00 -9.0 -13.4 70   LegendMM LegendMM LegendMM 101.13     LegendNANA
20:00 -9.6 -12.1 82   LegendMM LegendMM LegendMM 101.15     LegendNANA
21:00 -10.1 -13.5 76   LegendMM LegendMM LegendMM 101.19     LegendNANA
22:00 -10.1 -13.0 79   LegendMM LegendMM LegendMM 101.16     LegendNANA
23:00 -9.9 -13.3 76   LegendMM LegendMM LegendMM 101.15     LegendNANA

Notes on Data Quality.

Legend

  • E = Estimated
  • M = Missing
  • NA = Not Available*
  • [empty] = Indicates an unobserved value
Date modified: